Lovelock, NV

2:24 AM PST on February 21, 2017 (GMT -0800)
Derby

Weather History for KLOL - February, 2013

Change the Weather History Date:

Saturday, February 9, 2013

  Actual Average Record
Temperature  
Mean Temperature 30 °F -  
Max Temperature 41 °F 49 °F 65 °F (1951)
Min Temperature 18 °F 24 °F -2 °F (1949)
Degree Days  
Heating Degree Days 36    
Moisture  
Dew Point 15 °F    
Average Humidity 54    
Maximum Humidity 78    
Minimum Humidity 32    
Precipitation  
Precipitation 0.00 in - - ()
Sea Level Pressure  
Sea Level Pressure 30.04 in    
Wind  
Wind Speed 7 mph (North)    
Max Wind Speed 12 mph    
Max Gust Speed -    
Visibility 10 miles    
Events      
Averages and records for this station are not official NWS values.
T = Trace of Precipitation, MM = Missing Value Source: NWS Daily Summary

Daily Weather History Graph

Daily Weather History Graph

Search for Another Location

Airport or City:

Trip Planner

Search our weather history database for the weather conditions in past years. The results will help you decide how hot, cold, wet, or windy it might be!

Date:

Astronomy

Feb. 09, 2013 Rise Set
Actual Time 6:54 AM PST 5:23 PM PST
Civil Twilight 6:26 AM PST 5:51 PM PST
Nautical Twilight 5:54 AM PST 6:23 PM PST
Astronomical Twilight 5:22 AM PST 6:55 PM PST
Moon 6:08 AM PST (2/9) 5:11 PM PST (2/9)
Length of Visible Light 11h 25m
Length of Day
10h 29m
Waning Crescent, 0% of the Moon is Illuminated
Feb 9
Waning Crescent
Feb 9
New
Feb 17
First Quarter
Feb 25
Full
Mar 4
Last Quarter

Hourly Weather History & Observations

Time (PST) Temp. Windchill Dew Point Humidity Pressure Visibility Wind Dir Wind Speed Gust Speed Precip Events Conditions
12:53 AM 30.9 °F 21.7 °F 17.1 °F 57% 29.94 in 10.0 mi NNW 11.5 mph - N/A   Overcast
1:53 AM 30.0 °F 25.2 °F 16.0 °F 56% 29.95 in 10.0 mi NW 4.6 mph - N/A   Scattered Clouds
2:53 AM 28.9 °F 20.4 °F 16.0 °F 58% 29.95 in 10.0 mi North 9.2 mph - N/A   Partly Cloudy
3:53 AM 27.0 °F 18.7 °F 16.0 °F 63% 29.96 in 10.0 mi NNW 8.1 mph - N/A   Clear
4:53 AM 24.1 °F 19.7 °F 14.0 °F 65% 29.98 in 10.0 mi North 3.5 mph - N/A   Clear
5:53 AM 21.9 °F 17.2 °F 12.9 °F 68% 30.00 in 10.0 mi NW 3.5 mph - N/A   Clear
6:53 AM 18.0 °F 9.8 °F 12.0 °F 78% 30.03 in 10.0 mi East 5.8 mph - N/A   Clear
7:53 AM 27.0 °F 18.7 °F 16.0 °F 63% 30.03 in 10.0 mi NE 8.1 mph - N/A   Clear
8:53 AM 30.0 °F - 18.0 °F 61% 30.04 in 10.0 mi Calm Calm - N/A   Clear
9:53 AM 33.1 °F 26.1 °F 18.0 °F 54% 30.05 in 10.0 mi SE 8.1 mph - N/A   Clear
10:53 AM 34.0 °F 31.0 °F 17.1 °F 50% 30.07 in 10.0 mi Variable 3.5 mph - N/A   Mostly Cloudy
11:53 AM 37.9 °F 34.4 °F 15.1 °F 39% 30.04 in 10.0 mi Variable 4.6 mph - N/A   Mostly Cloudy
12:53 PM 37.9 °F 32.7 °F 14.0 °F 38% 30.04 in 10.0 mi NNW 6.9 mph - N/A   Partly Cloudy
1:53 PM 39.9 °F 33.9 °F 12.9 °F 33% 30.04 in 10.0 mi NNE 9.2 mph - N/A   Partly Cloudy
2:53 PM 41.0 °F 36.4 °F 12.9 °F 32% 30.03 in 10.0 mi Variable 6.9 mph - N/A   Clear
3:53 PM 41.0 °F 35.2 °F 14.0 °F 33% 30.05 in 10.0 mi NNW 9.2 mph - N/A   Scattered Clouds
4:53 PM 37.9 °F 32.1 °F 14.0 °F 38% 30.06 in 10.0 mi North 8.1 mph - N/A   Clear
5:53 PM 30.0 °F 26.5 °F 12.9 °F 49% 30.09 in 10.0 mi North 3.5 mph - N/A   Clear
6:53 PM 28.0 °F 20.0 °F 12.9 °F 53% 30.13 in 10.0 mi NNE 8.1 mph - N/A   Clear
7:53 PM 28.0 °F 20.0 °F 14.0 °F 56% 30.10 in 10.0 mi NNE 8.1 mph - N/A   Clear
8:53 PM 21.9 °F 15.7 °F 12.0 °F 66% 30.13 in 10.0 mi WSW 4.6 mph - N/A   Clear
9:53 PM 25.0 °F - 14.0 °F 63% 30.12 in 10.0 mi Calm Calm - N/A   Overcast
10:53 PM 27.0 °F - 15.1 °F 61% 30.12 in 10.0 mi Calm Calm - N/A   Overcast
11:53 PM 26.1 °F - 14.0 °F 60% 30.12 in 10.0 mi Calm Calm - N/A   Overcast